18.05.2024;09:00;7
18.05.2024;08:00;10
18.05.2024;07:00;7
18.05.2024;06:00;6
18.05.2024;05:00;8
18.05.2024;04:00;9
18.05.2024;03:00;10
18.05.2024;02:00;15
18.05.2024;01:00;8
18.05.2024;00:00;15
17.05.2024;23:00;17
17.05.2024;22:00;8
17.05.2024;21:00;9
17.05.2024;20:00;7
17.05.2024;19:00;10
17.05.2024;18:00;10
17.05.2024;17:00;11
17.05.2024;16:00;9
17.05.2024;15:00;9
17.05.2024;14:00;6
17.05.2024;13:00;6
17.05.2024;12:00;5
17.05.2024;11:00;6
17.05.2024;10:00;7
17.05.2024;09:00;7
17.05.2024;08:00;8
17.05.2024;07:00;6
17.05.2024;06:00;4
17.05.2024;05:00;5
17.05.2024;04:00;5
17.05.2024;03:00;6
17.05.2024;02:00;8
17.05.2024;01:00;12
17.05.2024;00:00;16
16.05.2024;23:00;15
16.05.2024;22:00;17
16.05.2024;21:00;14
16.05.2024;20:00;31
16.05.2024;19:00;17
16.05.2024;18:00;26
16.05.2024;17:00;13
16.05.2024;16:00;18
16.05.2024;15:00;18
16.05.2024;14:00;14
16.05.2024;13:00;14
16.05.2024;12:00;21
16.05.2024;11:00;20
16.05.2024;10:00;12
